Monticello, NY

7:30 PM EST on November 11, 2019 (GMT -0500)
Sullivan County International

Weather History for KMSV - October, 2019

Change the Weather History Date:

Tuesday, October 22, 2019

  Actual Average Record
Temperature  
Mean Temperature 50 °F -  
Max Temperature 53 °F 52 °F 75 °F (2007)
Min Temperature 46 °F 36 °F 26 °F (2002)
Degree Days  
Heating Degree Days 16    
Moisture  
Dew Point 48 °F    
Average Humidity 92    
Maximum Humidity 100    
Minimum Humidity 69    
Precipitation  
Precipitation 0.41 in - - ()
Sea Level Pressure  
Sea Level Pressure 29.97 in    
Wind  
Wind Speed 8 mph (East)    
Max Wind Speed 15 mph    
Max Gust Speed 22 mph    
Visibility 6 miles    
Events Rain    
Averages and records for this station are not official NWS values.
T = Trace of Precipitation, MM = Missing Value Source: NWS Daily Summary

Daily Weather History Graph

Daily Weather History Graph

Search for Another Location

Airport or City:

Astronomy

Oct. 22, 2019 Rise Set
Actual Time 7:19 AM EDT 6:07 PM EDT
Civil Twilight 6:50 AM EDT 6:35 PM EDT
Nautical Twilight 6:18 AM EDT 7:08 PM EDT
Astronomical Twilight 5:46 AM EDT 7:40 PM EDT
Moon 12:19 AM EDT (10/22) 3:21 PM EDT (10/22)
Length of Visible Light 11h 45m
Length of Day
10h 48m
Last Quarter, 37% of the Moon is Illuminated
Oct 22
Last Quarter
Oct 27
New
Nov 4
First Quarter
Nov 12
Full
Nov 19
Last Quarter

Hourly Weather History & Observations

Time (EDT) Temp. Dew Point Humidity Pressure Visibility Wind Dir Wind Speed Gust Speed Precip Events Conditions
12:56 AM 46.9 °F 45.0 °F 93% 30.13 in 10.0 mi East 5.8 mph - N/A   Clear
1:56 AM 48.0 °F 45.0 °F 89% 30.13 in 10.0 mi SE 6.9 mph - N/A   Clear
2:56 AM 48.0 °F 45.0 °F 89% 30.12 in 10.0 mi SE 6.9 mph - N/A   Clear
3:56 AM 48.0 °F 45.0 °F 89% 30.11 in 10.0 mi Calm Calm - N/A   Partly Cloudy
4:56 AM 48.0 °F 45.0 °F 89% 30.08 in 10.0 mi East 9.2 mph - N/A   Overcast
5:56 AM 48.0 °F 41.0 °F 77% 30.07 in 10.0 mi East 6.9 mph - N/A   Overcast
6:56 AM 48.9 °F 39.0 °F 69% 30.08 in 10.0 mi East 6.9 mph - N/A   Overcast
7:56 AM 48.0 °F 39.0 °F 71% 30.07 in 10.0 mi East 8.1 mph - N/A   Overcast
9:27 AM 48.2 °F 41.0 °F 76% 30.07 in 10.0 mi East 8.1 mph - N/A   Overcast
9:56 AM 48.9 °F 43.0 °F 80% 30.09 in 10.0 mi East 9.2 mph - N/A   Overcast
10:56 AM 48.9 °F 46.0 °F 90% 30.07 in 10.0 mi ESE 9.2 mph - N/A   Overcast
11:56 AM 50.0 °F 48.0 °F 93% 30.06 in 5.0 mi SE 11.5 mph - N/A   Overcast
12:56 PM 50.0 °F 48.9 °F 96% 30.01 in 5.0 mi ESE 12.7 mph 18.4 mph 0.00 in   Overcast
1:20 PM 50.0 °F 48.2 °F 94% 29.98 in 2.0 mi ESE 9.2 mph - 0.00 in Rain Light Rain
1:32 PM 50.0 °F 48.2 °F 94% 29.95 in 4.0 mi East 11.5 mph - 0.00 in Rain Light Rain
1:56 PM 50.0 °F 48.9 °F 96% 29.96 in 4.0 mi East 10.4 mph - 0.00 in   Overcast
2:22 PM 50.0 °F 50.0 °F 100% 29.94 in 1.8 mi East 9.2 mph - N/A   Overcast
2:38 PM 50.0 °F 50.0 °F 100% 29.93 in 2.0 mi East 11.5 mph - 0.00 in Rain Light Rain
2:53 PM 51.8 °F 50.0 °F 94% 29.92 in 3.0 mi East 12.7 mph 21.9 mph 0.00 in Rain Light Rain
2:56 PM 51.1 °F 50.0 °F 96% 29.93 in 3.0 mi East 15.0 mph 21.9 mph 0.00 in Rain Light Rain
3:56 PM 51.1 °F 50.0 °F 96% 29.91 in 3.0 mi East 9.2 mph - 0.00 in Rain Light Rain
4:06 PM 51.8 °F 50.0 °F 94% 29.90 in 2.5 mi East 10.4 mph - 0.00 in Rain Light Rain
4:14 PM 51.8 °F 50.0 °F 94% 29.90 in 3.0 mi ESE 12.7 mph 17.3 mph 0.00 in Rain Light Rain
4:56 PM 51.1 °F 51.1 °F 100% 29.91 in 3.0 mi East 9.2 mph - 0.00 in Rain Light Rain
5:56 PM 52.0 °F 51.1 °F 97% 29.90 in 4.0 mi East 10.4 mph - 0.00 in Rain Light Rain
6:56 PM 52.0 °F 51.1 °F 97% 29.89 in 6.0 mi East 6.9 mph - 0.05 in Rain Light Rain
7:56 PM 52.0 °F 52.0 °F 100% 29.88 in 10.0 mi East 10.4 mph - 0.02 in Rain Light Rain
8:56 PM 53.1 °F 52.0 °F 96% 29.86 in 5.0 mi East 11.5 mph - 0.04 in Rain Rain
9:56 PM 53.1 °F 52.0 °F 96% 29.86 in 9.0 mi Variable 3.5 mph - 0.05 in Rain Light Rain
10:27 PM 53.6 °F 51.8 °F 94% 29.85 in 3.0 mi WNW 5.8 mph - 0.09 in Rain Rain
10:47 PM 53.6 °F 51.8 °F 94% 29.85 in 3.0 mi NW 3.5 mph - 0.13 in Rain Light Rain
10:56 PM 53.1 °F 52.0 °F 96% 29.86 in 2.5 mi NW 3.5 mph - 0.14 in Rain Light Rain
11:33 PM 53.6 °F 51.8 °F 94% 29.84 in 1.2 mi Calm Calm - 0.08 in Rain Rain
11:48 PM 53.6 °F 51.8 °F 94% 29.84 in 1.8 mi Calm Calm - 0.10 in Rain Rain
11:56 PM 53.1 °F 52.0 °F 96% 29.84 in 1.2 mi North 3.5 mph - 0.11 in Rain Light Rain